Location: Possagno
(45.8500°N, 11.8667°E)
Time: 12:53:28
(UTC+00:00)

SL-08 R/B - Pass Details

Date: 07 June 2020
Orbit: 675 x 738 km, 98.4° (Epoch: 15 July)

Event Time Altitude Azimuth Distance (km) Brightness Sun altitude
Exits shadow 01:54:59 - 166° (SSE) 2,739 6.0 -12.0°
Reaches altitude 10° 01:56:30 10° 167° (SSE) 2,116 5.4 -11.8°
Maximum altitude 02:01:07 83° 254° (WSW) 687 3.2 -11.3°
Drops below altitude 10° 02:05:46 10° 345° (NNW) 2,120 6.3 -10.8°
Sets 02:08:00 0° 346° (NNW) 3,039 7.1 -10.5°
